| time (UTC) | temp F | wind direction | speed knots | gust knots | rain 1hr in | rain 24hr in | rain mn in | humidity % | barometer mb |
| 20260506012539 | 79 | 197 | 2.6 | 8.7 | 0.00 | 0.00 | 0.00 | 80 | 1006.6 |
| 20260506012036 | 79 | 200 | 3.5 | 8.7 | 0.00 | 0.00 | 0.00 | 80 | 1006.5 |
| 20260506011550 | 79 | 153 | 1.7 | 8.7 | 0.00 | 0.00 | 0.00 | 79 | 1006.4 |
| 20260506011040 | 79 | 152 | 2.6 | 8.7 | 0.00 | 0.00 | 0.00 | 79 | 1006.2 |
| 20260506010537 | 79 | 138 | 2.6 | 12.2 | 0.00 | 0.00 | 0.00 | 79 | 1006.2 |
| 20260506010056 | 80 | 140 | 4.3 | 12.2 | 0.00 | 0.00 | 0.00 | 79 | 1006.1 |
| 20260506005537 | 80 | 157 | 4.3 | 10.4 | 0.00 | 0.00 | 0.00 | 79 | 1006.0 |
| 20260506005039 | 80 | 173 | 4.3 | 10.4 | 0.00 | 0.00 | 0.00 | 78 | 1005.9 |
| 20260506004548 | 80 | 199 | 3.5 | 10.4 | 0.00 | 0.00 | 0.00 | 78 | 1005.9 |
| 20260506004037 | 80 | 141 | 4.3 | 10.4 | 0.00 | 0.00 | 0.00 | 78 | 1005.9 |
| 20260506003538 | 81 | 173 | 4.3 | 10.4 | 0.00 | 0.00 | 0.00 | 78 | 1005.8 |
| 20260506003059 | 81 | 234 | 3.5 | 12.2 | 0.00 | 0.00 | 0.00 | 77 | 1005.9 |
| 20260506002536 | 81 | 153 | 4.3 | 14.8 | 0.00 | 0.00 | 0.00 | 77 | 1005.8 |
| 20260506002036 | 81 | 185 | 4.3 | 14.8 | 0.00 | 0.00 | 0.00 | 76 | 1005.8 |
| 20260506001551 | 81 | 217 | 4.3 | 9.6 | 0.00 | 0.00 | 0.00 | 76 | 1005.7 |
| 20260506001037 | 81 | 174 | 4.3 | 9.6 | 0.00 | 0.00 | 0.00 | 76 | 1005.9 |
| 20260506000537 | 82 | 63 | 3.5 | 9.6 | 0.00 | 0.00 | 0.00 | 76 | 1005.9 |
| 20260506000046 | 82 | 207 | 3.5 | 9.6 | 0.00 | 0.00 | 0.00 | 76 | 1005.9 |
| 20260505235536 | 82 | 211 | 4.3 | 9.6 | 0.00 | 0.00 | 0.00 | 76 | 1005.8 |
| 20260505235037 | 82 | 167 | 4.3 | 9.6 | 0.00 | 0.00 | 0.00 | 75 | 1005.8 |
| 20260505234606 | 82 | 197 | 4.3 | 13.0 | 0.00 | 0.00 | 0.00 | 75 | 1005.8 |
| 20260505234035 | 83 | 206 | 5.2 | 13.9 | 0.00 | 0.00 | 0.00 | 74 | 1005.9 |
| 20260505233536 | 83 | 199 | 6.1 | 13.9 | 0.00 | 0.00 | 0.00 | 74 | 1005.8 |
| 20260505233053 | 83 | 173 | 5.2 | 12.2 | 0.00 | 0.00 | 0.00 | 74 | 1005.8 |
| 20260505232540 | 83 | 155 | 4.3 | 12.2 | 0.00 | 0.00 | 0.00 | 74 | 1005.8 |
| 20260505232034 | 83 | 175 | 5.2 | 12.2 | 0.00 | 0.00 | 0.00 | 73 | 1005.9 |
| 20260505231552 | 83 | 154 | 4.3 | 10.4 | 0.00 | 0.00 | 0.00 | 73 | 1005.8 |
| 20260505231040 | 84 | 196 | 5.2 | 10.4 | 0.00 | 0.00 | 0.00 | 73 | 1005.7 |
| 20260505230537 | 84 | 175 | 4.3 | 12.2 | 0.00 | 0.00 | 0.00 | 73 | 1005.6 |
| 20260505230049 | 84 | 216 | 5.2 | 12.2 | 0.00 | 0.00 | 0.00 | 72 | 1005.7 |
| 20260505225539 | 84 | 194 | 5.2 | 11.3 | 0.00 | 0.00 | 0.00 | 72 | 1005.7 |
| 20260505225037 | 84 | 217 | 4.3 | 13.9 | 0.00 | 0.00 | 0.00 | 72 | 1005.7 |
| 20260505224545 | 84 | 253 | 5.2 | 13.9 | 0.00 | 0.00 | 0.00 | 71 | 1005.9 |
| 20260505224036 | 85 | 138 | 3.5 | 13.9 | 0.00 | 0.00 | 0.00 | 72 | 1005.9 |
| 20260505223539 | 85 | 174 | 5.2 | 13.9 | 0.00 | 0.00 | 0.00 | 71 | 1005.9 |
| 20260505223102 | 85 | 248 | 4.3 | 8.7 | 0.00 | 0.00 | 0.00 | 71 | 1005.8 |
| 20260505222537 | 85 | 172 | 3.5 | 8.7 | 0.00 | 0.00 | 0.00 | 72 | 1005.8 |
| 20260505222037 | 85 | 187 | 4.3 | 8.7 | 0.00 | 0.00 | 0.00 | 71 | 1005.8 |
| 20260505221545 | 85 | 172 | 3.5 | 10.4 | 0.00 | 0.00 | 0.00 | 71 | 1005.8 |
| 20260505221038 | 85 | 196 | 4.3 | 10.4 | 0.00 | 0.00 | 0.00 | 70 | 1005.8 |
| 20260505220537 | 85 | 137 | 3.5 | 10.4 | 0.00 | 0.00 | 0.00 | 70 | 1005.8 |
| 20260505220049 | 86 | 174 | 3.5 | 11.3 | 0.00 | 0.00 | 0.00 | 70 | 1006.0 |
| 20260505215536 | 86 | 129 | 4.3 | 11.3 | 0.00 | 0.00 | 0.00 | 70 | 1006.0 |
| 20260505215037 | 86 | 180 | 4.3 | 10.4 | 0.00 | 0.00 | 0.00 | 70 | 1005.9 |
| 20260505214556 | 86 | 186 | 3.5 | 10.4 | 0.00 | 0.00 | 0.00 | 71 | 1005.9 |
| 20260505214035 | 86 | 175 | 4.3 | 10.4 | 0.00 | 0.00 | 0.00 | 70 | 1006.0 |
| 20260505213536 | 86 | 209 | 3.5 | 10.4 | 0.00 | 0.00 | 0.00 | 71 | 1006.0 |
| 20260505213048 | 86 | 93 | 3.5 | 10.4 | 0.00 | 0.00 | 0.00 | 70 | 1006.1 |
| 20260505212535 | 86 | 213 | 4.3 | 9.6 | 0.00 | 0.00 | 0.00 | 70 | 1006.1 |
| 20260505212038 | 86 | 206 | 2.6 | 10.4 | 0.00 | 0.00 | 0.00 | 71 | 1006.2 |
| 20260505211552 | 86 | 182 | 4.3 | 10.4 | 0.00 | 0.00 | 0.00 | 68 | 1006.2 |
| 20260505211036 | 87 | 205 | 3.5 | 8.7 | 0.00 | 0.00 | 0.00 | 69 | 1006.4 |
| 20260505210535 | 86 | 202 | 3.5 | 8.7 | 0.00 | 0.00 | 0.00 | 71 | 1006.4 |
| 20260505210047 | 86 | 159 | 3.5 | 10.4 | 0.00 | 0.00 | 0.00 | 70 | 1006.6 |
| 20260505205536 | 86 | 234 | 5.2 | 10.4 | 0.00 | 0.00 | 0.00 | 69 | 1006.6 |
| 20260505205036 | 86 | 161 | 2.6 | 8.7 | 0.00 | 0.00 | 0.00 | 71 | 1006.7 |
| 20260505204546 | 86 | 223 | 2.6 | 12.2 | 0.00 | 0.00 | 0.00 | 71 | 1006.8 |
| 20260505204036 | 86 | 200 | 4.3 | 12.2 | 0.00 | 0.00 | 0.00 | 70 | 1006.8 |
| 20260505203536 | 86 | 213 | 6.1 | 13.0 | 0.00 | 0.00 | 0.00 | 69 | 1006.8 |
| 20260505203100 | 86 | 143 | 5.2 | 13.0 | 0.00 | 0.00 | 0.00 | 71 | 1007.0 |
| 20260505202536 | 86 | 209 | 4.3 | 12.2 | 0.00 | 0.00 | 0.00 | 71 | 1007.0 |
| 20260505202036 | 85 | 185 | 3.5 | 11.3 | 0.00 | 0.00 | 0.00 | 71 | 1006.9 |
| 20260505201548 | 85 | 235 | 5.2 | 11.3 | 0.00 | 0.00 | 0.00 | 70 | 1007.0 |
| 20260505201037 | 85 | 213 | 4.3 | 10.4 | 0.00 | 0.00 | 0.00 | 71 | 1007.1 |
| 20260505200536 | 85 | 209 | 4.3 | 10.4 | 0.00 | 0.00 | 0.00 | 69 | 1007.2 |
| 20260505200048 | 86 | 171 | 4.3 | 10.4 | 0.00 | 0.00 | 0.00 | 69 | 1007.3 |
| 20260505195539 | 86 | 224 | 2.6 | 9.6 | 0.00 | 0.00 | 0.00 | 71 | 1007.3 |
| 20260505195036 | 85 | 352 | 2.6 | 9.6 | 0.00 | 0.00 | 0.00 | 71 | 1007.3 |
| 20260505194547 | 85 | 212 | 4.3 | 8.7 | 0.00 | 0.00 | 0.00 | 71 | 1007.5 |
| 20260505194037 | 85 | 242 | 3.5 | 8.7 | 0.00 | 0.00 | 0.00 | 71 | 1007.4 |
| 20260505193535 | 84 | 105 | 2.6 | 8.7 | 0.00 | 0.00 | 0.00 | 72 | 1007.5 |
| 20260505193045 | 84 | 153 | 3.5 | 10.4 | 0.00 | 0.00 | 0.00 | 72 | 1007.6 |
| 20260505192540 | 84 | 124 | 3.5 | 11.3 | 0.00 | 0.00 | 0.00 | 72 | 1007.7 |
| 20260505192036 | 84 | 144 | 4.3 | 11.3 | 0.00 | 0.00 | 0.00 | 72 | 1007.7 |
| 20260505191551 | 84 | 311 | 4.3 | 12.2 | 0.00 | 0.00 | 0.00 | 71 | 1007.9 |
| 20260505191037 | 84 | 116 | 4.3 | 12.2 | 0.00 | 0.00 | 0.00 | 72 | 1007.8 |
| 20260505190536 | 84 | 217 | 3.5 | 8.7 | 0.00 | 0.00 | 0.00 | 72 | 1007.8 |
| 20260505190053 | 84 | 148 | 2.6 | 10.4 | 0.00 | 0.00 | 0.00 | 72 | 1007.7 |
| 20260505185542 | 84 | 196 | 3.5 | 11.3 | 0.00 | 0.00 | 0.00 | 72 | 1007.8 |
| 20260505185037 | 84 | 243 | 3.5 | 13.0 | 0.00 | 0.00 | 0.00 | 72 | 1007.7 |
| 20260505184552 | 84 | 198 | 5.2 | 13.0 | 0.00 | 0.00 | 0.00 | 71 | 1007.8 |
| 20260505184037 | 84 | 227 | 5.2 | 10.4 | 0.00 | 0.00 | 0.00 | 71 | 1007.8 |
| 20260505183537 | 84 | 33 | 3.5 | 11.3 | 0.00 | 0.00 | 0.00 | 72 | 1007.8 |
| 20260505183048 | 84 | 192 | 4.3 | 11.3 | 0.00 | 0.00 | 0.00 | 72 | 1007.9 |
| 20260505182540 | 84 | 202 | 2.6 | 8.7 | 0.00 | 0.00 | 0.00 | 74 | 1007.9 |
| 20260505182037 | 83 | 187 | 4.3 | 11.3 | 0.00 | 0.00 | 0.00 | 75 | 1008.0 |
| 20260505181544 | 83 | 230 | 5.2 | 11.3 | 0.00 | 0.00 | 0.00 | 74 | 1008.0 |
| 20260505181041 | 83 | 146 | 4.3 | 11.3 | 0.00 | 0.00 | 0.00 | 75 | 1008.0 |
| 20260505180541 | 82 | 214 | 5.2 | 11.3 | 0.00 | 0.00 | 0.00 | 74 | 1008.0 |
| 20260505180048 | 82 | 192 | 4.3 | 10.4 | 0.00 | 0.00 | 0.00 | 74 | 1008.2 |
| 20260505175540 | 82 | 166 | 5.2 | 10.4 | 0.00 | 0.00 | 0.00 | 75 | 1008.3 |
| 20260505175037 | 82 | 145 | 6.1 | 10.4 | 0.00 | 0.00 | 0.00 | 75 | 1008.2 |
| 20260505174553 | 82 | 170 | 4.3 | 14.8 | 0.00 | 0.00 | 0.00 | 77 | 1008.3 |
| 20260505174037 | 81 | 145 | 3.5 | 14.8 | 0.00 | 0.00 | 0.00 | 78 | 1008.4 |
| 20260505173537 | 81 | 195 | 5.2 | 14.8 | 0.00 | 0.00 | 0.00 | 78 | 1008.5 |
| 20260505173047 | 81 | 211 | 4.3 | 10.4 | 0.00 | 0.00 | 0.00 | 79 | 1008.6 |
| 20260505172534 | 80 | 235 | 3.5 | 10.4 | 0.00 | 0.00 | 0.00 | 79 | 1008.7 |
| 20260505172033 | 80 | 231 | 2.6 | 10.4 | 0.00 | 0.00 | 0.00 | 79 | 1008.7 |
| 20260505171547 | 80 | 218 | 2.6 | 10.4 | 0.00 | 0.00 | 0.00 | 79 | 1008.8 |
| 20260505171037 | 80 | 222 | 3.5 | 9.6 | 0.00 | 0.00 | 0.00 | 80 | 1008.9 |
| 20260505170537 | 79 | 149 | 2.6 | 9.6 | 0.00 | 0.00 | 0.00 | 81 | 1008.9 |
| 20260505170047 | 79 | 182 | 2.6 | 13.0 | 0.00 | 0.00 | 0.00 | 81 | 1008.9 |
| 20260505165534 | 79 | 128 | 3.5 | 13.9 | 0.00 | 0.00 | 0.00 | 81 | 1008.8 |
| 20260505165034 | 79 | 122 | 5.2 | 14.8 | 0.00 | 0.00 | 0.00 | 82 | 1008.8 |
| 20260505164548 | 78 | 128 | 4.3 | 14.8 | 0.00 | 0.00 | 0.00 | 83 | 1008.9 |
| 20260505164034 | 78 | 126 | 4.3 | 10.4 | 0.00 | 0.00 | 0.00 | 83 | 1008.8 |
| 20260505163537 | 78 | 213 | 2.6 | 7.8 | 0.00 | 0.00 | 0.00 | 84 | 1008.9 |
| 20260505163052 | 77 | 200 | 2.6 | 7.8 | 0.00 | 0.00 | 0.00 | 85 | 1008.9 |
| 20260505162541 | 77 | 212 | 2.6 | 8.7 | 0.00 | 0.00 | 0.00 | 85 | 1008.9 |
| 20260505162037 | 77 | 127 | 2.6 | 8.7 | 0.00 | 0.00 | 0.00 | 85 | 1008.9 |
| 20260505161548 | 76 | 235 | 1.7 | 7.8 | 0.00 | 0.00 | 0.00 | 86 | 1008.9 |
| 20260505161036 | 76 | 223 | 2.6 | 7.8 | 0.00 | 0.00 | 0.00 | 86 | 1009.0 |
| 20260505160537 | 76 | 241 | 2.6 | 7.8 | 0.00 | 0.00 | 0.00 | 86 | 1009.1 |
| 20260505153051 | 74 | 198 | 3.5 | 7.8 | 0.00 | 0.00 | 0.00 | 88 | 1008.9 |
| 20260505152534 | 74 | 187 | 2.6 | 7.0 | 0.00 | 0.00 | 0.00 | 88 | 1008.9 |
| 20260505152035 | 74 | 206 | 1.7 | 10.4 | 0.00 | 0.00 | 0.00 | 89 | 1008.9 |
| 20260505151547 | 74 | 205 | 2.6 | 10.4 | 0.00 | 0.00 | 0.00 | 89 | 1008.9 |
| 20260505151034 | 73 | 184 | 3.5 | 10.4 | 0.00 | 0.00 | 0.00 | 89 | 1008.9 |
| 20260505150534 | 73 | 201 | 3.5 | 7.8 | 0.00 | 0.00 | 0.00 | 89 | 1008.8 |
| 20260505140534 | 72 | 210 | 2.6 | 7.8 | 0.00 | 0.00 | 0.00 | 90 | 1008.6 |
| 20260505125032 | 71 | 121 | 2.6 | 8.7 | 0.00 | 0.00 | 0.00 | 90 | 1008.3 |
| 20260505124546 | 71 | 198 | 1.7 | 9.6 | 0.00 | 0.00 | 0.00 | 90 | 1008.1 |
| 20260505124033 | 71 | 148 | 2.6 | 9.6 | 0.00 | 0.00 | 0.00 | 90 | 1008.3 |
| 20260505123536 | 71 | 140 | 2.6 | 6.1 | 0.00 | 0.00 | 0.00 | 90 | 1008.2 |
| 20260505123055 | 71 | 156 | 2.6 | 6.1 | 0.00 | 0.00 | 0.00 | 90 | 1008.3 |
| 20260505122535 | 70 | 178 | 2.6 | 6.1 | 0.00 | 0.00 | 0.00 | 90 | 1008.3 |
| 20260505122035 | 70 | 227 | 0.9 | 7.8 | 0.00 | 0.00 | 0.00 | 90 | 1008.4 |
| 20260505121548 | 70 | 218 | 2.6 | 8.7 | 0.00 | 0.00 | 0.00 | 90 | 1007.9 |
| 20260505121032 | 70 | 239 | 3.5 | 8.7 | 0.00 | 0.00 | 0.00 | 90 | 1007.6 |
| 20260505120536 | 70 | 208 | 3.5 | 7.8 | 0.00 | 0.00 | 0.00 | 90 | 1007.7 |
| 20260505120057 | 70 | 227 | 3.5 | 7.8 | 0.00 | 0.00 | 0.00 | 90 | 1007.6 |
| 20260505115534 | 70 | 163 | 3.5 | 7.0 | 0.00 | 0.00 | 0.00 | 90 | 1007.5 |
| 20260505115035 | 70 | 167 | 1.7 | 7.8 | 0.00 | 0.00 | 0.00 | 91 | 1007.7 |
| 20260505114548 | 70 | 168 | 2.6 | 7.8 | 0.00 | 0.00 | 0.00 | 91 | 1007.7 |
| 20260505114032 | 70 | 223 | 1.7 | 7.8 | 0.00 | 0.00 | 0.00 | 90 | 1007.7 |
| 20260505113535 | 70 | 227 | 3.5 | 7.8 | 0.00 | 0.00 | 0.00 | 90 | 1007.8 |
| 20260505113052 | 70 | 204 | 2.6 | 7.8 | 0.00 | 0.00 | 0.00 | 91 | 1007.6 |
| 20260505112535 | 70 | 223 | 1.7 | 6.1 | 0.00 | 0.00 | 0.00 | 91 | 1007.5 |
| 20260505112035 | 70 | 267 | 1.7 | 7.8 | 0.00 | 0.00 | 0.00 | 91 | 1007.7 |
| 20260505111548 | 70 | 188 | 2.6 | 7.8 | 0.00 | 0.00 | 0.00 | 91 | 1007.6 |
| 20260505111038 | 70 | 169 | 2.6 | 6.1 | 0.00 | 0.00 | 0.00 | 91 | 1007.5 |
| 20260505110533 | 70 | 138 | 1.7 | 6.1 | 0.00 | 0.00 | 0.00 | 91 | 1007.7 |
| 20260505102035 | 69 | 165 | 1.7 | 6.1 | 0.00 | 0.00 | 0.00 | 90 | 1007.6 |
| 20260505101554 | 69 | 202 | 1.7 | 6.1 | 0.00 | 0.00 | 0.00 | 90 | 1008.0 |
| 20260505101032 | 69 | 193 | 1.7 | 7.0 | 0.00 | 0.00 | 0.00 | 90 | 1007.7 |
| 20260505100533 | 69 | 234 | 2.6 | 7.8 | 0.00 | 0.00 | 0.00 | 90 | 1007.7 |
| 20260505100047 | 69 | 150 | 3.5 | 7.8 | 0.00 | 0.00 | 0.00 | 90 | 1007.6 |
| 20260505095535 | 69 | 195 | 2.6 | 7.0 | 0.00 | 0.00 | 0.00 | 90 | 1007.7 |
| 20260505095033 | 69 | 179 | 2.6 | 7.8 | 0.00 | 0.00 | 0.00 | 90 | 1007.7 |
| 20260505094557 | 69 | 109 | 1.7 | 8.7 | 0.00 | 0.00 | 0.00 | 90 | 1007.8 |
| 20260505094034 | 69 | 182 | 3.5 | 9.6 | 0.00 | 0.00 | 0.00 | 90 | 1007.8 |
| 20260505093535 | 69 | 175 | 3.5 | 9.6 | 0.00 | 0.00 | 0.00 | 90 | 1008.0 |
| 20260505093053 | 69 | 148 | 2.6 | 6.1 | 0.00 | 0.00 | 0.00 | 89 | 1007.9 |
| 20260505092535 | 69 | 192 | 1.7 | 7.8 | 0.00 | 0.00 | 0.00 | 89 | 1007.7 |
| 20260505092037 | 69 | 155 | 2.6 | 7.8 | 0.00 | 0.00 | 0.00 | 89 | 1007.9 |
| 20260505091550 | 69 | 164 | 1.7 | 6.1 | 0.00 | 0.00 | 0.00 | 89 | 1007.8 |
| 20260505091034 | 69 | 146 | 2.6 | 7.8 | 0.00 | 0.00 | 0.00 | 89 | 1007.9 |
| 20260505090535 | 69 | 144 | 1.7 | 7.8 | 0.00 | 0.00 | 0.00 | 89 | 1008.0 |
| 20260505090057 | 69 | 178 | 2.6 | 7.8 | 0.00 | 0.00 | 0.00 | 89 | 1007.9 |
| 20260505085537 | 69 | 122 | 2.6 | 7.8 | 0.00 | 0.00 | 0.00 | 89 | 1008.0 |
| 20260505085035 | 69 | 192 | 2.6 | 7.0 | 0.00 | 0.00 | 0.00 | 88 | 1008.2 |
| 20260505084548 | 69 | 194 | 2.6 | 7.0 | 0.00 | 0.00 | 0.00 | 88 | 1008.4 |
| 20260505084034 | 69 | 174 | 2.6 | 7.0 | 0.00 | 0.00 | 0.00 | 88 | 1008.4 |
| 20260505083538 | 69 | 186 | 1.7 | 7.0 | 0.00 | 0.00 | 0.00 | 88 | 1008.5 |
| 20260505083102 | 69 | 149 | 1.7 | 6.1 | 0.00 | 0.00 | 0.00 | 88 | 1008.6 |
| 20260505082532 | 69 | 199 | 3.5 | 7.0 | 0.00 | 0.00 | 0.00 | 88 | 1008.7 |
| 20260505082034 | 69 | 212 | 2.6 | 7.0 | 0.00 | 0.00 | 0.00 | 87 | 1008.7 |
| 20260505081550 | 69 | 213 | 1.7 | 6.1 | 0.00 | 0.00 | 0.00 | 87 | 1008.6 |
| 20260505081035 | 69 | 213 | 2.6 | 7.8 | 0.00 | 0.00 | 0.00 | 87 | 1008.8 |
| 20260505080536 | 69 | 185 | 1.7 | 7.8 | 0.00 | 0.00 | 0.00 | 87 | 1008.9 |
| 20260505080046 | 69 | 167 | 2.6 | 7.8 | 0.00 | 0.00 | 0.00 | 87 | 1008.9 |
| 20260505075535 | 69 | 188 | 2.6 | 7.0 | 0.00 | 0.00 | 0.00 | 87 | 1009.0 |
| 20260505075035 | 69 | 178 | 2.6 | 7.8 | 0.00 | 0.00 | 0.00 | 87 | 1008.9 |
| 20260505074549 | 69 | 213 | 2.6 | 7.8 | 0.00 | 0.00 | 0.00 | 87 | 1008.9 |
| 20260505074035 | 69 | 258 | 2.6 | 7.0 | 0.00 | 0.00 | 0.00 | 87 | 1008.9 |
| 20260505073535 | 69 | 190 | 2.6 | 7.0 | 0.00 | 0.00 | 0.00 | 87 | 1009.0 |
| 20260505073051 | 69 | 228 | 2.6 | 7.0 | 0.00 | 0.00 | 0.00 | 87 | 1008.9 |
| 20260505072535 | 69 | 210 | 3.5 | 7.0 | 0.00 | 0.00 | 0.00 | 86 | 1009.0 |
| 20260505072034 | 69 | 236 | 2.6 | 7.0 | 0.00 | 0.00 | 0.00 | 86 | 1009.0 |
| 20260505071552 | 69 | 184 | 2.6 | 7.0 | 0.00 | 0.00 | 0.00 | 86 | 1009.1 |
| 20260505071035 | 69 | 219 | 2.6 | 7.8 | 0.00 | 0.00 | 0.00 | 86 | 1009.2 |
| 20260505070536 | 69 | 188 | 2.6 | 7.8 | 0.00 | 0.00 | 0.00 | 86 | 1009.2 |
| 20260505065536 | 69 | 194 | 2.6 | 6.1 | 0.00 | 0.00 | 0.00 | 85 | 1009.4 |
| 20260505065034 | 69 | 167 | 1.7 | 6.1 | 0.00 | 0.00 | 0.00 | 85 | 1009.5 |
| 20260505064556 | 69 | 170 | 2.6 | 7.0 | 0.00 | 0.00 | 0.00 | 85 | 1009.6 |
| 20260505064035 | 69 | 202 | 3.5 | 9.6 | 0.00 | 0.00 | 0.00 | 85 | 1009.7 |
| 20260505063535 | 69 | 143 | 3.5 | 9.6 | 0.00 | 0.00 | 0.00 | 85 | 1009.6 |
| 20260505063051 | 69 | 211 | 3.5 | 9.6 | 0.00 | 0.00 | 0.00 | 85 | 1009.6 |
| 20260505062535 | 69 | 211 | 3.5 | 8.7 | 0.00 | 0.00 | 0.00 | 85 | 1009.7 |
| 20260505062037 | 69 | 186 | 4.3 | 8.7 | 0.00 | 0.00 | 0.00 | 84 | 1009.7 |
| 20260505061610 | 69 | 145 | 2.6 | 7.8 | 0.00 | 0.00 | 0.00 | 84 | 1009.7 |
| 20260505061035 | 70 | 168 | 3.5 | 7.8 | 0.00 | 0.00 | 0.00 | 84 | 1009.5 |
| 20260505060536 | 70 | 181 | 2.6 | 9.6 | 0.00 | 0.00 | 0.00 | 84 | 1009.5 |
| 20260505060057 | 70 | 184 | 2.6 | 9.6 | 0.00 | 0.00 | 0.00 | 84 | 1009.3 |
| 20260505055535 | 70 | 185 | 4.3 | 9.6 | 0.00 | 0.00 | 0.00 | 83 | 1009.4 |
| 20260505055037 | 70 | 178 | 3.5 | 11.3 | 0.00 | 0.00 | 0.00 | 83 | 1009.5 |
| 20260505054556 | 70 | 159 | 5.2 | 11.3 | 0.00 | 0.00 | 0.00 | 83 | 1009.6 |
| 20260505054034 | 70 | 147 | 3.5 | 11.3 | 0.00 | 0.00 | 0.00 | 83 | 1009.7 |
| 20260505053534 | 70 | 144 | 3.5 | 11.3 | 0.00 | 0.00 | 0.00 | 83 | 1009.7 |
| 20260505053048 | 70 | 197 | 4.3 | 12.2 | 0.00 | 0.00 | 0.00 | 82 | 1009.7 |
| 20260505052537 | 70 | 222 | 5.2 | 12.2 | 0.00 | 0.00 | 0.00 | 82 | 1009.5 |
| 20260505052037 | 70 | 137 | 5.2 | 12.2 | 0.00 | 0.00 | 0.00 | 82 | 1009.5 |
| 20260505051547 | 70 | 122 | 5.2 | 9.6 | 0.00 | 0.00 | 0.00 | 82 | 1009.5 |
| 20260505051038 | 70 | 174 | 4.3 | 13.0 | 0.00 | 0.00 | 0.00 | 82 | 1009.4 |
| 20260505050536 | 71 | 181 | 5.2 | 13.0 | 0.00 | 0.00 | 0.00 | 81 | 1009.5 |
| 20260505041548 | 72 | 198 | 4.3 | 13.9 | 0.00 | 0.00 | 0.00 | 80 | 1009.9 |
| 20260505041039 | 72 | 190 | 3.5 | 8.7 | 0.00 | 0.00 | 0.00 | 79 | 1010.0 |
| 20260505040536 | 72 | 165 | 3.5 | 8.7 | 0.00 | 0.00 | 0.00 | 79 | 1010.0 |
| 20260505040101 | 72 | 229 | 5.2 | 10.4 | 0.00 | 0.00 | 0.00 | 79 | 1009.9 |
| 20260505035536 | 72 | 239 | 4.3 | 10.4 | 0.00 | 0.00 | 0.00 | 78 | 1009.8 |
| 20260505035037 | 72 | 161 | 3.5 | 11.3 | 0.00 | 0.00 | 0.00 | 78 | 1009.7 |
| 20260505034548 | 72 | 201 | 4.3 | 11.3 | 0.00 | 0.00 | 0.00 | 78 | 1009.7 |
| 20260505034036 | 72 | 182 | 4.3 | 11.3 | 0.00 | 0.00 | 0.00 | 78 | 1009.7 |
| 20260505033536 | 72 | 209 | 4.3 | 11.3 | 0.00 | 0.00 | 0.00 | 78 | 1009.7 |
| 20260505033059 | 73 | 167 | 4.3 | 9.6 | 0.00 | 0.00 | 0.00 | 78 | 1009.7 |
| 20260505032535 | 73 | 167 | 3.5 | 11.3 | 0.00 | 0.00 | 0.00 | 78 | 1009.9 |
| 20260505032037 | 73 | 199 | 5.2 | 11.3 | 0.00 | 0.00 | 0.00 | 77 | 1009.8 |
| 20260505031552 | 73 | 206 | 5.2 | 9.6 | 0.00 | 0.00 | 0.00 | 77 | 1009.6 |
| 20260505031035 | 73 | 211 | 3.5 | 8.7 | 0.00 | 0.00 | 0.00 | 77 | 1009.7 |
| 20260505030535 | 73 | 168 | 3.5 | 11.3 | 0.00 | 0.00 | 0.00 | 77 | 1009.6 |
| 20260505030058 | 73 | 230 | 4.3 | 11.3 | 0.00 | 0.00 | 0.00 | 77 | 1009.8 |
| 20260505025533 | 73 | 217 | 4.3 | 9.6 | 0.00 | 0.00 | 0.00 | 77 | 1009.7 |
| 20260505025038 | 73 | 186 | 3.5 | 8.7 | 0.00 | 0.00 | 0.00 | 77 | 1009.7 |
| 20260505024545 | 73 | 209 | 2.6 | 7.0 | 0.00 | 0.00 | 0.00 | 77 | 1009.6 |
| 20260505024035 | 73 | 151 | 2.6 | 7.0 | 0.00 | 0.00 | 0.00 | 77 | 1009.5 |
| 20260505023534 | 73 | 161 | 2.6 | 6.1 | 0.00 | 0.00 | 0.00 | 76 | 1009.6 |
| 20260505023047 | 74 | 167 | 2.6 | 7.0 | 0.00 | 0.00 | 0.00 | 76 | 1009.6 |
| 20260505022535 | 74 | 213 | 1.7 | 7.0 | 0.00 | 0.00 | 0.00 | 75 | 1009.5 |
| 20260505022035 | 74 | 163 | 1.7 | 6.1 | 0.00 | 0.00 | 0.00 | 75 | 1009.5 |
| 20260505021551 | 74 | 140 | 2.6 | 6.1 | 0.00 | 0.00 | 0.00 | 75 | 1009.5 |
| 20260505021035 | 74 | 212 | 1.7 | 7.8 | 0.00 | 0.00 | 0.00 | 74 | 1009.6 |
| 20260505020535 | 74 | 211 | 3.5 | 7.8 | 0.00 | 0.00 | 0.00 | 74 | 1009.5 |
| 20260505020047 | 75 | 146 | 2.6 | 7.8 | 0.00 | 0.00 | 0.00 | 74 | 1009.4 |
| 20260505015535 | 75 | 178 | 2.6 | 8.7 | 0.00 | 0.00 | 0.00 | 73 | 1009.3 |
| 20260505015035 | 75 | 171 | 3.5 | 9.6 | 0.00 | 0.00 | 0.00 | 73 | 1009.2 |
| 20260505014549 | 75 | 132 | 3.5 | 9.6 | 0.00 | 0.00 | 0.00 | 73 | 1009.1 |
| 20260505014035 | 75 | 230 | 3.5 | 8.7 | 0.00 | 0.00 | 0.00 | 72 | 1009.1 |
| 20260505013534 | 75 | 197 | 3.5 | 13.9 | 0.00 | 0.00 | 0.00 | 72 | 1009.3 |
| 20260505013045 | 76 | 190 | 3.5 | 13.9 | 0.00 | 0.00 | 0.00 | 72 | 1009.3 |